DW6221 Weather Reports


time (UTC)temp
C
wind
direction
speed
KPH
gust
KPH
rain 1hr
cm
rain 24hr
cm
rain mn
cm
humidity
%
barometer
mb
20260504231544 18 149 0.0 8.0 0.00 0.00 0.00 52 1010.2
20260504230043 19 194 4.8 11.3 0.00 0.00 0.00 49 1010.2
20260504224540 20 174 0.0 6.4 0.00 0.00 0.00 50 1010.2
20260504223040 20 208 0.0 3.2 0.00 0.00 0.00 50 1010.2
20260504221538 21 173 0.0 6.4 0.00 0.00 0.00 46 1010.1
20260504220033 21 248 0.0 17.7 0.00 0.00 0.00 43 1010.0
20260504214536 21 200 3.2 9.7 0.00 0.00 0.00 46 1010.2
20260504213031 21 185 0.0 8.0 0.00 0.00 0.00 44 1010.2
20260504211530 22 226 3.2 12.9 0.00 0.00 0.00 42 1010.2
20260504210029 22 219 1.6 11.3 0.00 0.00 0.00 40 1010.2
20260504204531 22 160 0.0 12.9 0.00 0.00 0.00 40 1010.3
20260504203025 22 126 3.2 8.0 0.00 0.00 0.00 42 1010.4
20260504201522 22 211 3.2 12.9 0.00 0.00 0.00 40 1010.5
20260504200020 22 277 0.0 12.9 0.00 0.00 0.00 39 1010.8
20260504194516 22 186 4.8 16.1 0.00 0.00 0.00 39 1011.0
20260504193014 22 198 3.2 11.3 0.00 0.00 0.00 39 1011.4
20260504191514 22 200 4.8 14.5 0.00 0.00 0.00 38 1011.5
20260504190007 22 210 3.2 11.3 0.00 0.00 0.00 40 1011.9
20260504184506 22 213 0.0 14.5 0.00 0.00 0.00 37 1012.1
20260504183003 22 298 6.4 12.9 0.00 0.00 0.00 37 1012.2
20260504181606 22 224 3.2 9.7 0.00 0.00 0.00 43 1012.3
20260504180056 21 247 0.0 12.9 0.00 0.00 0.00 42 1012.4
20260504174552 21 293 1.6 9.7 0.00 0.00 0.00 38 1012.6
20260504173049 20 229 1.6 14.5 0.00 0.00 0.00 37 1012.8
20260504171546 21 133 0.0 14.5 0.00 0.00 0.00 41 1013.0
20260504081528 1 139 0.0 0.0 0.00 0.00 0.00 92 1016.0
20260504044551 2 138 0.0 0.0 0.00 0.00 0.00 88 1016.4
20260504043057 2 138 0.0 0.0 0.00 0.00 0.00 88 1016.3
20260504041546 2 138 0.0 0.0 0.00 0.00 0.00 87 1016.3
20260504040043 3 138 0.0 0.0 0.00 0.00 0.00 85 1016.2
20260504034542 3 138 0.0 0.0 0.00 0.00 0.00 85 1016.1
20260504033040 3 138 0.0 0.0 0.00 0.00 0.00 82 1016.0
20260504031540 3 138 0.0 0.0 0.00 0.00 0.00 83 1015.8
20260504030038 4 138 0.0 0.0 0.00 0.00 0.00 79 1015.7
20260504024537 5 138 0.0 0.0 0.00 0.00 0.00 79 1015.8
20260504023039 5 138 0.0 0.0 0.00 0.00 0.00 77 1015.6
20260504021537 5 138 0.0 0.0 0.00 0.00 0.00 76 1015.6
20260504020053 6 138 0.0 0.0 0.00 0.00 0.00 73 1015.5
20260504014553 6 138 0.0 0.0 0.00 0.00 0.00 71 1015.5
20260504013044 7 138 0.0 0.0 0.00 0.00 0.00 72 1015.5
20260504011536 7 138 0.0 0.0 0.00 0.00 0.00 69 1015.1
20260504010039 8 138 0.0 0.0 0.00 0.00 0.00 65 1015.1
20260504004543 10 138 0.0 0.0 0.00 0.00 0.00 56 1014.9
20260504003034 10 138 0.0 0.0 0.00 0.00 0.00 59 1014.7
20260504001545 11 138 0.0 0.0 0.00 0.00 0.00 46 1014.7
20260504000032 12 138 0.0 0.0 0.00 0.00 0.00 44 1014.5
20260503234531 12 137 0.0 1.6 0.00 0.00 0.00 46 1014.4
20260503233038 13 134 0.0 0.0 0.00 0.00 0.00 40 1014.1